ONEWEB-0229, 48779

Orbit data source: Space-Track

ONEWEB-0229, 48779 is a payload satellite owned by One Web (NAA) (UK) in LEO that was launched on Fri, 28 May 2021 UTC via a SOYUZ-2-1B launch vehicle from the Vostochny Cosmodrome (VOSTO). Payload-class satellites include a variety of spacecraft equipped with specific instruments for various scientific and technological missions. These include communications satellites like Starlink; space stations such as the ISS; scientific satellites like the Hubble; Earth observation satellites from companies like Planet Labs, Umbra, and HawkEye 360; GPS; miniature CubeSats for education and research; and military/defense satellites.

Loading next visibility...
Identifier
48779, 2021-045N
Orbit
LEO
Country
Flag of UKUK
Related business
Manufacturer
One Web
Mission
Operational Commercial Communications
Bus & Motor
ARROW, Unknown motor
Mass
148 kg wet, ~140 kg dry
Launch date (UTC)
2021-05-28 (5 years ago)
Launch vehicle
SOYUZ-2-1B
Launch site
Vostochny Cosmodrome (VOSTO)
Object type
Payload
Rocket body
Debris
Shape & HBR
Trap Box + 2 Pan, 6.7 m
Radar Cross Section
3.464 m², Large (>1 m²)

Expand to show TLE details & history
Last TLE update: 2 days ago

TLE from 2 days ago
0 ONEWEB-0229
1 48779U 21045N   26171.48432852  .00000040  00000-0  72892-4 0  9996
2 48779  87.9015 258.5335 0001846  99.5536 260.5803 13.15549372244840
Epoch: 2026-06-20T11:37Z
TLE epoch observation values (Epoch: 2026-06-20T11:37:25.984Z)
Latitude
Longitude
175.47694°
Altitude
1,204.892 km
Speed
7.251 km/s
True Right ascension
17h 14m 08s
True Declination
0° 00' 00"
Sunlit
Object was in full shadow at epoch
Visualization orbit readout
Latitude
Unknown
Longitude
Unknown
Altitude
Unknown
Speed
Unknown
Apparent Right ascension
Unknown
Apparent Declination
Unknown
Sunlit
N/A
Visualization observer readout
Local Sidereal Time
21:24:57
Azimuth
Unknown
Elevation
Unknown
Doppler factor
Unknown
Orbital elements
Apogee altitude
1,200.278 km
Perigee altitude
1,197.481 km
Semi-major axis
7,577.017 km
Eccentricity
0.00018
Inclination
87.9015°
RAAN
258.5335°
Arg. of periapsis
99.5536°
True anomaly
260.55943°
Mean anomaly
260.5803°
Eccentric anomaly
260.56987°
Mean motion
3.29076 °/min
Orbital period
109.4 mins
BSTAR
0.000072892
Loading maneuver chart data...
Computing Atmospheric mass density...
Loading historical data...
Loading historical data...
Loading historical data...
Loading historical data...
Loading historical data...
Loading historical data...
Loading historical data...

Documentation

Showing up to 5 results
|